sat.trackr.live / text

‹ back to catalog

STARLINK-2446

NORAD 47844 · 2021-018BK

PAYLOAD ACTIVE UNKNOWN

§ Identity

Operator
Country
US
Launch date
2021-03-11
Launch site
AFETR
Launch vehicle
Mass (kg)
RCS (m²)

Purposes: comms

External: N2YO · Heavens-Above · Gunter

§ Orbital elements

Epoch: 2026-05-25T00:36:59.559840Z

Period
94.05 min
Inclination
53.1611°
Eccentricity
0.0000424
Mean motion
15.31037682 rev/d
Perigee alt
472.4 km
Apogee alt
473.0 km
Semi-major
6,850.9 km
B*
7.4220e-5
RAAN
250.8726°
Arg perigee
229.5091°
Mean anomaly
130.5874°
Rev number
28,837

§ Raw data

STARLINK-24461 47844U 21018BK  26145.02568935  .00001895  00000+0  74220-4 0  99962 47844  53.1611 250.8726 0000424 229.5091 130.5874 15.31037682288376

JSON: /api/v1/satellites/47844 · /tle

For live sub-satellite position, see the globe view (requires WebGL).

§ Visibility from observer

Set your observer location to see the next 7 days of passes ≥ 10°. The values pass through the URL so the page stays shareable.

No JS? Fill the form by hand. The geolocation button needs JavaScript.